sat.trackr.live / text

‹ back to catalog

STARLINK-36671

NORAD 68967 · 2026-099S

PAYLOAD ACTIVE UNKNOWN

§ Identity

Operator
Country
US
Launch date
2026-05-01
Launch site
AFETR
Launch vehicle
Mass (kg)
RCS (m²)

Purposes: comms

External: N2YO · Heavens-Above · Gunter

§ Orbital elements

Epoch: 2026-09-19T20:01:26.416128Z

Period
93.85 min
Inclination
53.1589°
Eccentricity
0.0001010
Mean motion
15.34406367 rev/d
Perigee alt
462.0 km
Apogee alt
463.4 km
Semi-major
6,840.8 km
B*
7.8215e-4
RAAN
78.7851°
Arg perigee
71.0245°
Mean anomaly
289.0867°
Rev number
2,180

§ Raw data

STARLINK-366711 68967U 26099S   26262.83433352  .00026148  00000+0  78215-3 0  99972 68967  53.1589  78.7851 0001010  71.0245 289.0867 15.34406367 21806

JSON: /api/v1/satellites/68967 · /tle

For live sub-satellite position, see the globe view (requires WebGL).

§ Visibility from observer

Set your observer location to see the next 7 days of passes ≥ 10°. The values pass through the URL so the page stays shareable.

No JS? Fill the form by hand. The geolocation button needs JavaScript.